Regional Weather Roundup
Issued by NWS

Home | Current Version | Previous Version | Text Only | Print | Product List | Glossary On
Versions: 1 2 3 4 5 6 7 8 9 10 11 12 13 14 15 16 17 18 19 20 21 22 23 24 25 26 27 28 29 30 31 32 33 34 35 36 37 38 39 40 41 42 43 44 45 46 47 48 49 50
000
ASUS43 KLSX 270510
RWRMO

WEATHER SUMMARY FOR MISSOURI
NATIONAL WEATHER SERVICE SPRINGFIELD MO
1200 AM CDT TUE JUN 27 2017

NOTE: "FAIR" INDICATES FEW OR NO CLOUDS BELOW 12,000 FEET WITH NO
       SIGNIFICANT WEATHER AND/OR OBSTRUCTIONS TO VISIBILITY.
       CURRENT SKY AND/OR WEATHER CONDITIONS ARE NOT AVAILABLE FOR
       CHILLICOTHE AND FARMINGTON.

MOZ001>031-035>038-043-044-053-054-270600-
...NORTHERN AND WESTERN MISSOURI...

CITY           SKY/WX    TMP DP  RH WIND       PRES   REMARKS
KANSAS CTY INT CLEAR     60  58  92 E6        30.15R
KANSAS C DTWN  CLEAR     61  58  90 NE3       30.14R
LEE`S SUMMIT   CLEAR     60  60 100 E6        30.15R
ST JOSEPH      CLEAR     57  57 100 CALM      30.14S
CHILLICOTHE      N/A     57  56  96 CALM      30.15R
KIRKSVILLE     CLEAR     56  55  97 CALM      30.15R

$$
MOZ066>068-077>081-088>096-101>105-270600-
...SOUTHWEST MISSOURI...

CITY           SKY/WX    TMP DP  RH WIND       PRES   REMARKS
SPRINGFIELD    TSTM      62  61  96 SW7       30.15F FOG
JOPLIN         RAIN      65  64  97 E10       30.14R FOG
BRANSON          N/A     63  57  82 SE6       30.15R

$$
MOZ032>034-039>042-045>050-055>058-069>072-270600-
...CENTRAL MISSOURI...

CITY           SKY/WX    TMP DP  RH WIND       PRES   REMARKS
COLUMBIA       CLEAR     61  60  97 CALM      30.14R
JEFFERSON CITY CLEAR     60  58  92 CALM      30.14R
ROLLA          CLOUDY    58  57  97 CALM      30.13S
SEDALIA        CLEAR     60  60 100 N3        30.16R
WARRENSBURG    CLEAR     59  59 100 CALM      30.15R FOG
OSAGE BEACH    CLOUDY    61  60  97 CALM      30.15R

$$
MOZ051-052-059>065-270600-
...EAST CENTRAL MISSOURI...

CITY           SKY/WX    TMP DP  RH WIND       PRES   REMARKS
ST LOUIS INTL  PTCLDY    63  55  75 W5        30.13R
SPIRIT OF STL  CLEAR     57  56  96 CALM      30.12R
ST CHARLES     CLEAR     58  54  86 CALM      30.12R

$$
MOZ072>076-082>087-097>100-106>115-270600-
...SOUTH CENTRAL AND SOUTHEAST MISSOURI...

CITY           SKY/WX    TMP DP  RH WIND       PRES   REMARKS
CAPE GIRARDEAU CLOUDY    65  60  84 CALM      30.11S
FARMINGTON     CLOUDY    61  57  87 CALM      30.15R
POPLAR BLUFF   CLOUDY    64  64 100 CALM      30.10F
WEST PLAINS    CLOUDY    62  58  86 CALM      30.14R

$$




USA.gov is the U.S. government's official web portal to all federal, state and local government web resources and services.